EW7826 Weather Reports


time (UTC)temp
C
wind
direction
speed
KPH
gust
KPH
rain 1hr
cm
rain 24hr
cm
rain mn
cm
humidity
%
barometer
mb
20260504081856 15 0.0 0.0 0.00 0.00 0.00 68 1006.5
20260504080816 16 0.0 0.0 0.00 0.00 0.00 66 1006.3
20260504045815 18 0.0 0.0 0.00 0.00 0.00 60 1006.4
20260504044816 18 0.0 0.0 0.00 0.00 0.00 60 1006.3
20260504043815 18 0.0 1.6 0.00 0.00 0.00 58 1006.3
20260504042815 18 0.0 0.0 0.00 0.00 0.00 54 1006.4
20260504041815 18 0.0 0.0 0.00 0.00 0.00 53 1006.3
20260504040815 18 0.0 0.0 0.00 0.00 0.00 52 1006.2
20260504035815 18 0.0 0.0 0.00 0.00 0.00 52 1006.3
20260504034815 18 0.0 0.0 0.00 0.00 0.00 52 1006.2
20260504033815 19 0.0 0.0 0.00 0.00 0.00 51 1006.3
20260504032816 19 0.0 0.0 0.00 0.00 0.00 50 1006.2
20260504031815 20 0.0 3.2 0.00 0.00 0.00 51 1006.2
20260504030816 19 0.0 0.0 0.00 0.00 0.00 51 1006.2
20260504025815 20 0.0 0.0 0.00 0.00 0.00 52 1006.3
20260504024816 20 0.0 0.0 0.00 0.00 0.00 52 1006.2
20260504023815 20 0.0 1.6 0.00 0.00 0.00 51 1006.3
20260504022815 20 23 1.6 12.9 0.00 0.00 0.00 47 1006.3
20260504021815 21 315 1.6 6.4 0.00 0.00 0.00 46 1006.3
20260504020836 21 23 4.8 16.1 0.00 0.00 0.00 46 1006.4
20260504015817 21 0.0 3.2 0.00 0.00 0.00 47 1006.5
20260504014817 21 0 4.8 16.1 0.00 0.00 0.00 46 1006.6
20260504013857 21 0 8.0 19.3 0.00 0.00 0.00 44 1006.7
20260504012837 21 0 9.7 22.5 0.00 0.00 0.00 44 1006.7
20260504011837 21 0 6.4 17.7 0.00 0.00 0.00 43 1006.8
20260504010817 22 0 8.0 20.9 0.00 0.00 0.00 42 1006.7
20260504005817 22 0 4.8 17.7 0.00 0.00 0.00 42 1006.8
20260504004817 22 338 3.2 14.5 0.00 0.00 0.00 43 1006.9
20260504003817 21 0 3.2 19.3 0.00 0.00 0.00 44 1007.0
20260504002817 21 0 3.2 14.5 0.00 0.00 0.00 46 1007.1
20260504001817 22 315 1.6 12.9 0.00 0.00 0.00 46 1007.2
20260504000817 22 338 1.6 12.9 0.00 0.00 0.00 47 1007.1
20260503235817 21 338 3.2 12.9 0.00 0.00 0.00 49 1007.2
20260503234817 21 0 8.0 17.7 0.00 0.00 0.00 49 1007.3
20260503233817 21 0 4.8 17.7 0.00 0.00 0.00 51 1007.4
20260503232817 21 0 4.8 17.7 0.00 0.00 0.00 51 1007.6
20260503231817 21 0 6.4 16.1 0.00 0.00 0.00 52 1007.7
20260503230817 21 0 8.0 19.3 0.00 0.00 0.00 51 1008.0
20260503225818 21 0 3.2 16.1 0.00 0.00 0.00 51 1008.0
20260503224817 21 23 1.6 9.7 0.00 0.00 0.00 50 1008.1
20260503223817 21 23 1.6 8.0 0.00 0.00 0.00 50 1008.2
20260503222837 21 0 3.2 17.7 0.00 0.00 0.00 49 1008.5
20260503221817 21 0 8.0 20.9 0.00 0.00 0.00 49 1008.5
20260503220817 21 338 9.7 24.1 0.00 0.00 0.00 48 1008.6
20260503215817 21 23 4.8 17.7 0.00 0.00 0.00 48 1008.7
20260503214817 21 0 3.2 16.1 0.00 0.00 0.00 51 1008.7
20260503213817 21 0 3.2 14.5 0.00 0.00 0.00 54 1008.8
20260503212816 20 0 3.2 12.9 0.00 0.00 0.00 55 1008.9
20260503211817 20 0.0 4.8 0.00 0.00 0.00 56 1009.1
20260503210816 20 23 6.4 17.7 0.00 0.00 0.00 55 1009.1
20260503205817 20 315 8.0 19.3 0.00 0.00 0.00 55 1009.2
20260503204817 20 0 1.6 8.0 0.00 0.00 0.00 56 1009.4
20260503203817 20 0.0 1.6 0.00 0.00 0.00 54 1009.5
20260503202837 20 23 3.2 16.1 0.00 0.00 0.00 54 1009.5
20260503201817 20 338 1.6 4.8 0.00 0.00 0.00 59 1009.7
20260503200817 20 0 3.2 14.5 0.00 0.00 0.00 54 1009.8
20260503195816 20 0 1.6 4.8 0.00 0.00 0.00 56 1010.0
20260503194817 20 0.0 3.2 0.00 0.00 0.00 60 1010.2
20260503193817 20 0.0 3.2 0.00 0.00 0.00 61 1010.3
20260503192817 20 0 3.2 14.5 0.00 0.00 0.00 61 1010.5
20260503191838 20 338 1.6 9.7 0.00 0.00 0.00 62 1010.4
20260503190817 19 0 6.4 16.1 0.00 0.00 0.00 63 1010.6
20260503185817 18 0 6.4 14.5 0.00 0.00 0.00 65 1010.7
20260503184836 18 338 1.6 8.0 0.00 0.00 0.00 67 1010.9
20260503183816 17 338 1.6 6.4 0.00 0.00 0.00 68 1010.9
20260503182817 17 23 1.6 4.8 0.00 0.00 0.00 69 1010.9
20260503181817 17 0 6.4 14.5 0.00 0.00 0.00 70 1011.0
20260503180816 17 338 1.6 6.4 0.00 0.00 0.00 71 1011.1
20260503175816 17 0 3.2 8.0 0.00 0.00 0.00 70 1011.0
20260503174817 17 0.0 0.0 0.00 0.00 0.00 72 1011.1
20260503173817 16 0 1.6 8.0 0.00 0.00 0.00 73 1011.2
20260503172817 16 0 11.3 17.7 0.00 0.00 0.00 73 1011.2
20260503171817 16 0 3.2 12.9 0.00 0.00 0.00 73 1011.1
20260503170816 16 0 8.0 17.7 0.00 0.00 0.00 74 1011.2
20260503150816 15 0 4.8 12.9 0.00 0.00 0.00 75 1011.4
20260503130836 12 0.0 0.0 0.00 0.00 0.00 84 1011.0